No particular awareness of the weather is required.    There are no Weather-warnings

Webcam Vacarisses more information Webcam Vacarisses


Thunder radar more information blitzortung!


Rain radar more information rain snow radar


Visit our other weather sites:

Template documentation
and downloads

And another site



Weather Underground History page Text

Daily Summary for May 25, 2018 Units:  Metric    English   Both
« Previous Day
Next Day »
Daily Weekly Monthly Yearly Custom
  Current: High: Low: Average:
Temperature: 16.2 °C 18.4 °C 15.1 °C 16.3 °C
Dew Point: 11.2 °C 12.7 °C 11.1 °C 11.9 °C
Humidity: 72 % 80 % 69 % 75 %
Wind Speed: 5.6 km/h 5.6 km/h 0 km/h 0.3 km/h
Wind Gust: 5.6 km/h 5.6 km/h - -
Wind:NNW - - NW
Pressure: 1014.1 hPa 1015.8 hPa 1014.1 hPa -
Precipitation: 0 mm      
Historical Graphs
 
 
Tabular Data for May 25, 2018
Time Temperature Dew Point Pressure Wind Wind Speed Wind Gust Humidity Rainfall Rate (Hourly)
00:00 18.4 °C 12.7 °C 1015.8 hPa Calm   1.6 km/h 69 % 0 mm
00:05 18.4 °C 12.7 °C 1015.8 hPa Calm   1.6 km/h 69 % 0 mm
00:10 18.4 °C 12.7 °C 1015.8 hPa Calm   1.6 km/h 69 % 0 mm
00:15 18.2 °C 12.4 °C 1015.8 hPa Calm   1.6 km/h 69 % 0 mm
00:20 18.2 °C 12.4 °C 1015.8 hPa Calm     69 % 0 mm
00:25 18.2 °C 12.4 °C 1015.8 hPa Calm     69 % 0 mm
00:30 18.1 °C 12.3 °C 1015.8 hPa Calm     69 % 0 mm
00:35 17.8 °C 12.3 °C 1015.8 hPa Calm     70 % 0 mm
00:40 17.7 °C 12.4 °C 1015.8 hPa Calm     71 % 0 mm
00:45 17.6 °C 12.3 °C 1015.8 hPa Calm     71 % 0 mm
00:50 17.5 °C 12.2 °C 1015.8 hPa Calm     71 % 0 mm
00:55 17.3 °C 12.2 °C 1015.8 hPa Calm     72 % 0 mm
01:00 17.2 °C 12.1 °C 1015.8 hPa Calm     72 % 0 mm
01:05 17.2 °C 12.3 °C 1015.8 hPa Calm     73 % 0 mm
01:10 17.1 °C 12.4 °C 1015.8 hPa Calm     74 % 0 mm
01:15 16.8 °C 12.2 °C 1015.8 hPa Calm     74 % 0 mm
01:20 16.6 °C 11.9 °C 1015.8 hPa Calm   1.6 km/h 74 % 0 mm
01:25 16.5 °C 12.1 °C 1015.8 hPa Calm     75 % 0 mm
01:30 16.4 °C 12 °C 1015.8 hPa Calm     75 % 0 mm
01:35 16.4 °C 11.9 °C 1015.8 hPa Calm     75 % 0 mm
01:40 16.4 °C 12 °C 1015.8 hPa Calm     75 % 0 mm
01:45 16.5 °C 12.1 °C 1015.8 hPa Calm     75 % 0 mm
01:50 16.5 °C 11.8 °C 1015.5 hPa Calm   4.8 km/h 74 % 0 mm
01:55 16.6 °C 11.9 °C 1015.5 hPa Calm   3.2 km/h 74 % 0 mm
02:00 16.7 °C 12 °C 1015.5 hPa Calm   1.6 km/h 74 % 0 mm
02:05 16.6 °C 12.1 °C 1015.5 hPa Calm   1.6 km/h 75 % 0 mm
02:10 16.4 °C 11.7 °C 1015.5 hPa Calm   1.6 km/h 74 % 0 mm
02:15 16.2 °C 11.8 °C 1015.5 hPa Calm     75 % 0 mm
02:20 16.1 °C 11.8 °C 1015.8 hPa Calm   1.6 km/h 76 % 0 mm
02:25 15.9 °C 11.9 °C 1015.8 hPa Calm   1.6 km/h 77 % 0 mm
02:30 15.8 °C 11.8 °C 1015.5 hPa Calm   1.6 km/h 77 % 0 mm
02:35 15.7 °C 11.7 °C 1015.5 hPa Calm     77 % 0 mm
02:40 15.7 °C 11.7 °C 1015.5 hPa Calm     77 % 0 mm
02:45 15.6 °C 11.4 °C 1015.5 hPa Calm     76 % 0 mm
02:50 15.6 °C 11.6 °C 1015.5 hPa Calm     77 % 0 mm
02:55 15.6 °C 11.6 °C 1015.5 hPa Calm     77 % 0 mm
03:00 15.5 °C 11.7 °C 1015.5 hPa Calm     78 % 0 mm
03:05 15.4 °C 11.8 °C 1015.5 hPa Calm     79 % 0 mm
03:10 15.3 °C 11.7 °C 1015.5 hPa Calm     79 % 0 mm
03:15 15.3 °C 11.7 °C 1015.5 hPa Calm     79 % 0 mm
03:20 15.2 °C 11.6 °C 1015.1 hPa Calm     79 % 0 mm
03:25 15.2 °C 11.6 °C 1015.1 hPa Calm     79 % 0 mm
03:30 15.3 °C 11.8 °C 1015.1 hPa Calm     80 % 0 mm
03:35 15.3 °C 11.7 °C 1015.1 hPa Calm     79 % 0 mm
03:40 15.3 °C 11.7 °C 1015.1 hPa Calm     79 % 0 mm
03:45 15.3 °C 11.7 °C 1015.1 hPa Calm     79 % 0 mm
03:50 15.4 °C 11.8 °C 1015.1 hPa Calm     79 % 0 mm
03:55 15.3 °C 11.7 °C 1015.1 hPa Calm     79 % 0 mm
04:00 15.3 °C 11.7 °C 1015.1 hPa Calm     79 % 0 mm
04:05 15.2 °C 11.6 °C 1015.1 hPa Calm     79 % 0 mm
04:10 15.2 °C 11.8 °C 1014.8 hPa Calm     80 % 0 mm
04:15 15.2 °C 11.7 °C 1014.8 hPa Calm     80 % 0 mm
04:20 15.1 °C 11.7 °C 1014.4 hPa Calm     80 % 0 mm
04:25 15.1 °C 11.7 °C 1014.4 hPa Calm     80 % 0 mm
04:30 15.1 °C 11.7 °C 1014.4 hPa West 3.7 km/h 3.7 km/h 80 % 0 mm
04:35 15.4 °C 11.6 °C 1014.1 hPa NW 1.6 km/h 4.8 km/h 78 % 0 mm
04:40 15.7 °C 11.6 °C 1014.1 hPa Calm   3.2 km/h 77 % 0 mm
04:45 15.8 °C 11.6 °C 1014.1 hPa NNW 1.6 km/h 4.8 km/h 76 % 0 mm
04:50 15.9 °C 11.5 °C 1014.1 hPa Calm   1.6 km/h 75 % 0 mm
04:55 15.9 °C 11.3 °C 1014.1 hPa Calm     74 % 0 mm
05:00 15.9 °C 11.3 °C 1014.1 hPa NNW 1.9 km/h 1.9 km/h 74 % 0 mm
05:06 16.1 °C 11.2 °C 1014.1 hPa NNW 3.7 km/h 3.7 km/h 73 % 0 mm
05:11 16.2 °C 11.1 °C 1014.1 hPa North 3.7 km/h 3.7 km/h 72 % 0 mm
05:16 16.2 °C 11.2 °C 1014.1 hPa NNW 5.6 km/h 5.6 km/h 72 % 0 mm
Olesa de Montserrat-Weather station
Compliments of Weather Underground - 2.75 mb

Script developed by  Jim McMurry - jmcmurry@mwt.net Adapted for the template by  Wim van der Kuil - Leuven-Template.eu

You find our weather info also at:

UK Metoffice

European Weather Network

WeatherCloud

Weather Underground

AWEKAS

WeatherlinkIP

Citizen Weather Observer Program (CWOP)

HAMweather, WeatherForYou, PWS Weather

Equipment we use:

Weather-station
Davis Vantage Vue

Weather-program
Weather Display

Weather-server
My Computer

Provider
My provider

Davis Vantage Vue

Weather Display

My Computer

My provider